Weather in Wroclaw

Poland     51˚06′40″N   17˚02′18″E
temp.,
°C
wind,
m/s
gust,
m/s
humid.,
%
clouds,
%
prec.,
mm/h
press.,
hPa
HPBL,
m
1 december, tue
tue101:00−1˚s4118531 0.0 1021416
04:00sse4108450 0.0 1020465
07:00−1˚sse5108238 0.0 1020263
10:00+2˚s610739 0.0 1020534
13:00+3˚s58675 0.0 1020615
16:00sse46800 0.0 1021123
19:00−1˚s23840 0.0 102346
22:00−2˚s12850 0.0 102431
2 december, wed
wed201:00−2˚sse22850 0.0 102538
04:00−2˚sse23840 0.0 102351
07:00−3˚se23830 0.0 102464
10:00−1˚se34740 0.0 1023229
13:00+1˚se35650 0.0 1021423
16:00−1˚ese34780 0.0 102056
19:00−3˚se35810 0.0 1019100
22:00−3˚se357764 0.0 1017116
3 december, thu
thu301:00−3˚ese337467 0.0 101662
04:00−2˚se236641 0.0 101430
07:00−2˚sse236170 0.0 101333
10:00se2358100 0.0 1011118
13:00e1176100 0.4 100961
16:00ese2275100 0.0 100746
19:00ssw1274100 0.0 100621
22:00se3376100 0.0 100571
4 december, fri
fri401:00+1˚se3783100 0.0 1003155
04:00+1˚se379294 0.0 1000184
07:00+2˚se4119398 0.0 999306
10:00+5˚sse71483100 0.0 998445
13:00+6˚se81677100 0.0 996617
16:00+4˚se6158667 0.0 995430
19:00+4˚sse6128081 0.0 996293
22:00+2˚se4787100 0.0 996130
5 december, sat
sat501:00+5˚se5138184 0.0 996249
04:00+6˚se8177661 0.0 995397
07:00+7˚se8187278 0.0 995496
10:00+9˚se81568100 0.0 996490
13:00+9˚s357396 0.0 997188
16:00+8˚se41076100 0.0 998219
19:00+9˚se91671100 0.0 998479
22:00+9˚se81672100 0.0 998553